Terug naar catalogus

ATLAS AGENA B DEB

LostPO
NORAD 3121·DEBRIS·🇺🇸 United States

Gelanceerd Jul 19, 1963 vanaf Vandenberg Space Force Base

Loading…

Volgende Passages (komende 24 uur)

TLE

VerouderdSource: Space-Track

Epoch: Sep 22, 2025, 18:38 UTC

1  3121U 63030F   25265.77665337 -.00000023  00000-0 -12932-1 0  9998
2  3121  88.4265 223.3936 0032008 335.5634  24.3698  8.57967986183832

Volg ATLAS AGENA B DEB in realtime met AllMySat

Download on the App Store